Content
SEND FEEDBACK

Daily
Averages
Monthly
Summary
Brazil

MACAE, RIO DE JANEIRO


Home > South America > Brazil > Rio De Janeiro
Elevation: 7 feet     Latitude: 22 21S     Longitude: 041 46W

WEATHER
 
SELECT A DAY
Number of Records: 99,651;   Date Range: 6/30/96 - 7/28/14
 
SHARE

PRINT THIS DATA

[ ← Previous Day ]
WEATHER ALMANAC - APRIL 27, 2013
[ Next Day → ]
[ °C ]   °F
Weather ElementAverageHighLow
Temperature71.5 °F82.4 °F (11:00 am)60.8 °F (4:00 am)
Dewpoint63.5 °F68 °F (10:00 am)59 °F (6:00 am)
Humidity78.4 %100 % (1:00 am)45 % (1:00 pm)
Barometer30.03 in30.06 in (8:00 am)29.98 in (4:00 am)
Wind Speed3.2 mph8.1 mph (2:00 pm)
Weather ElementAverage
Visibility6.2 mi
Wind DirectionSW (229.1 °)

Weather ElementTotal
Precipitation---
Cooling Degree Days6.6 (Base 65)
Growing Degree Days21.6 (Base 50)
Averaged from 23 records on April 27, 2013
WEATHER CONDITIONS BREAKOUT
WIND DIRECTION BREAKOUT
WEATHER BY HOUR - APRIL 27, 2013
[ °C ]   °F
Local TimeTemperatureDewpointHumidityBarometerVisibilityWind DirectionWind SpeedGust SpeedPrecipitationEventsConditions
1:00 AM62.6 °F62.6 °F100 %30.04 inNNW (330°)1.2 mphClear
2:00 AM62.6 °F60.8 °F94 %30.01 inNorth (360°)1.2 mphClear
3:00 AM62.6 °F60.8 °F94 %30.01 inNNW (340°)1.2 mphClear
4:00 AM60.8 °F60.8 °F100 %29.98 inNorth (350°)2.3 mphClear
5:00 AM60.8 °F60.8 °F100 %30.01 inNW (310°)2.3 mphClear
6:00 AM60.8 °F59.0 °F94 %30.01 inNorth (350°)1.2 mphClear
7:00 AM62.6 °F62.6 °F100 %30.04 inNorth (350°)1.2 mphClear
8:00 AM69.8 °F66.2 °F88 %30.06 inNNW (340°)1.2 mphClear
9:00 AM77.0 °F64.4 °F65 %30.06 inNNE (30°)3.5 mphClear
10:00 AM78.8 °F68.0 °F69 %30.06 inSE (130°)4.6 mphClear
11:00 AM82.4 °F68.0 °F62 %30.06 inSE (140°)5.8 mphClear
12:00 PM82.4 °F62.6 °F51 %30.04 inSE (140°)5.8 mphClear
1:00 PM82.4 °F59.0 °F45 %30.01 in6.2 miSE (130°)6.9 mphPartly Cloudy
2:00 PM82.4 °F64.4 °F54 %30.01 in6.2 miESE (110°)8.1 mphPartly Cloudy
3:00 PM82.4 °F64.4 °F54 %29.98 inESE (110°)6.9 mphClear
4:00 PM80.6 °F62.6 °F54 %29.98 inESE (120°)4.6 mphClear
5:00 PM77.0 °F62.6 °F61 %30.01 inSSE (160°)3.5 mphClear
6:00 PM71.6 °F62.6 °F73 %30.01 inSSW (200°)2.3 mphClear
7:00 PM69.8 °F66.2 °F88 %30.04 inSW (220°)2.3 mphClear
8:00 PM69.8 °F66.2 °F88 %30.06 in6.2 miWest (280°)2.3 mphMostly Cloudy
9:00 PM69.8 °F66.2 °F88 %30.06 in6.2 miWest (260°)1.2 mphMostly Cloudy
10:00 PM69.8 °F66.2 °F88 %30.06 inSW (230°)2.3 mphClear
11:00 PM66.2 °F64.4 °F94 %30.06 inWest (280°)2.3 mphClear
Hourly data recorded from SBME, located miles away from Macae, Rio De Janeiro







STORIES FROM OUR PARTNERS